This demonstration page uses our WeatherBlox Daily Observations layout. Learn more.

Left ArrowRight Arrow

Hourly Observations for August 21, 2015

Temp ( °F °C ) Dew Point ( °F °C ) Humidity (%) Winds ( mph kmh ) Pressure ( in mb ) Visibility ( mi km ) Precip ( " mm )
12:53 am 00:53 Clear 80 26.7 64 17.8 58 58 SE 17 28 29.75 1008 10 16 0.00 0.00
1:53 am 01:53 Mostly Clear 79 26.1 64 17.8 60 60 N 23 37 29.86 1011 10 16 0.00 0.00
2:53 am 02:53 Mostly Cloudy with Nearby Thunderstorms 74 23.3 60 15.6 62 62 N 14 22 29.86 1011 10 16 0.00 0.00
3:05 am 03:05 Partly Cloudy with Thunderstorms 75 23.9 60 15.6 60 60 N 13 20 29.85 1011 10 16 0.00 0.00
3:20 am 03:20 Mostly Cloudy with Nearby Thunderstorms 75 24 59 15 57 57 NNW 12 19 29.85 1011 10 16 0.00 0.00
3:53 am 03:53 Mostly Clear with Nearby Thunderstorms 75 23.9 59 15 58 58 N 13 20 29.83 1010 10 16 0.00 0.00
4:29 am 04:29 Clear 75 23.9 59 15 58 58 WSW 10 17 29.80 1009 10 16 0.00 0.03
4:53 am 04:53 Clear 78 25.6 56 13.3 47 47 SW 9 15 29.78 1008 10 16 0.00 0.03
5:53 am 05:53 Clear 79 26.1 57 13.9 47 47 WNW 10 17 29.73 1007 10 16 0.00 0.03
6:53 am 06:53 Clear 75 23.9 58 14.4 55 55 W 12 19 29.76 1008 10 16 0.00 0.00
7:53 am 07:53 Sunny 72 22.2 59 15 64 64 ESE 6 9 29.79 1009 10 16 0.00 0.00
8:53 am 08:53 Sunny 77 25 60 15.6 56 56 SW 6 9 29.79 1009 10 16 0.00 0.00
9:53 am 09:53 Sunny 80 26.7 63 17.2 56 56 ESE 9 15 29.80 1009 10 16 0.00 0.00
10:53 am 10:53 Sunny 83 28.3 63 17.2 51 51 SE 13 20 29.80 1009 10 16 0.00 0.00
11:53 am 11:53 Sunny 89 31.7 60 15.6 38 38 SE 14 22 29.79 1009 10 16 0.00 0.00
12:53 pm 12:53 Sunny 92 33.3 60 15.6 34 34 ESE 13 20 29.78 1008 10 16 0.00 0.00
1:53 pm 13:53 Sunny 94 34.4 59 15 31 31 S 12 19 29.75 1008 10 16 0.00 0.00
2:53 pm 14:53 Sunny 97 36.1 58 14.4 27 27 S 10 17 29.74 1007 10 16 0.00 0.00
3:53 pm 15:53 Sunny 100 37.8 57 13.9 24 24 S 12 19 29.70 1006 10 16 0.00 0.00
4:53 pm 16:53 Sunny 99 37.2 55 12.8 23 23 undefined N/A 29.67 1005 10 16 0.00 0.00
5:53 pm 17:53 Sunny 100 37.8 55 12.8 22 22 SSE 12 19 29.65 1004 10 16 0.00 0.00
6:53 pm 18:53 Sunny 99 37.2 55 12.8 23 23 SE 14 22 29.65 1004 10 16 0.00 0.00
7:53 pm 19:53 Sunny 93 33.9 60 15.6 33 33 SSE 25 41 29.67 1005 10 16 0.00 0.00
8:53 pm 20:53 Clear 90 32.2 60 15.6 37 37 SSE 21 33 29.70 1006 10 16 0.00 0.00
9:53 pm 21:53 Clear 89 31.7 61 16.1 39 39 SSE 16 26 29.70 1006 10 16 0.00 0.00
10:53 pm 22:53 Clear 87 30.6 61 16.1 42 42 SSE 14 22 29.73 1007 10 16 0.00 0.00
11:53 pm 23:53 Clear 85 29.4 61 16.1 45 45 SSE 13 20 29.76 1008 10 16 0.00 0.00

Powered by AerisWeather